Location: Heidgraben
(53.7081°N, 9.6576°E)
Time: 01:24:25
(UTC+00:00)

Cosmos 2333 Rocket - Visible Passes

Search period start: 24 October 2020 00:00
Search period end: 03 November 2020 00:00
Orbit: 839 x 862 km, 70.8° (Epoch: 23 October)

Date Brightness Start Highest point End Pass type
(mag) Time Alt. Az. Time Alt. Az. Time Alt. Az.
24 Oct 4.5 01:32:51 17° N 01:32:51 17° N 01:35:03 10° NNE visible
24 Oct 4.5 03:14:51 10° NNW 03:17:37 14° N 03:20:33 10° NE visible
24 Oct 4.1 04:59:40 10° NNW 05:04:07 23° NNE 05:08:32 10° E visible
25 Oct 4.6 01:20:52 16° N 01:20:52 16° N 01:22:44 10° NNE visible
25 Oct 4.5 03:02:52 11° NNW 03:05:17 14° N 03:08:14 10° NE visible
25 Oct 4.2 04:47:21 10° NNW 04:51:47 23° NNE 04:56:13 10° E visible
26 Oct 4.7 01:08:54 15° N 01:08:54 15° N 01:10:24 10° NNE visible
26 Oct 4.5 02:50:54 12° NNW 02:52:58 14° N 02:55:54 10° NE visible
26 Oct 4.2 04:35:02 10° NNW 04:39:29 23° NNE 04:43:53 10° E visible
27 Oct 4.8 00:56:55 14° N 00:56:55 14° N 00:58:05 10° NNE visible
27 Oct 4.5 02:38:55 13° NNW 02:40:38 14° N 02:43:35 10° NE visible
27 Oct 4.2 04:22:43 10° NNW 04:27:09 23° NNE 04:31:34 10° E visible
28 Oct 4.9 00:44:58 13° NNE 00:44:58 13° NNE 00:45:46 10° NNE visible
28 Oct 4.5 02:26:58 13° NNW 02:28:19 14° N 02:31:16 10° NE visible
28 Oct 4.2 04:10:23 10° NNW 04:14:50 23° NNE 04:19:15 10° E visible
29 Oct 5.0 00:33:01 11° NNE 00:33:01 11° NNE 00:33:27 10° NNE visible
29 Oct 4.6 02:15:01 14° N 02:16:00 14° N 02:18:56 10° NE visible
29 Oct 4.2 03:58:04 10° NNW 04:02:31 23° NNE 04:06:55 10° E visible
30 Oct 5.1 00:21:05 10° NNE 00:21:05 10° NNE 00:21:07 10° NNE visible
30 Oct 4.6 02:03:06 14° N 02:03:41 14° N 02:06:36 10° NE visible
30 Oct 4.2 03:45:45 10° NNW 03:50:11 23° NNE 03:54:36 10° E visible
30 Oct 2.6 05:29:52 10° NNW 05:35:33 67° NE 05:41:10 10° SE visible
31 Oct 4.6 01:51:12 14° N 01:51:21 14° N 01:54:17 10° NE visible
31 Oct 4.2 03:33:26 10° NNW 03:37:53 23° NNE 03:42:17 10° E visible
31 Oct 2.6 05:17:32 10° NNW 05:23:13 67° NE 05:28:50 10° SE visible
01 Nov 4.7 01:39:19 14° N 01:39:19 14° N 01:41:58 10° NE visible
01 Nov 4.2 03:21:19 11° NNW 03:25:33 23° NNE 03:29:57 10° E visible
01 Nov 2.6 05:05:13 10° NNW 05:10:54 67° NE 05:16:32 10° SE visible
02 Nov 4.8 01:27:29 14° NNE 01:27:29 14° NNE 01:29:39 10° NE visible
02 Nov 4.2 03:09:29 13° NNW 03:13:14 23° NNE 03:17:38 10° E visible
02 Nov 2.5 04:52:54 10° NNW 04:58:35 67° NE 05:04:12 10° SE visible
